Change the Weather History Date:

Thursday, April 25, 2013

  Actual Average (KLOT) Record (KLOT)
Temperature  
Mean Temperature 45 °F 54 °F  
Max Temperature 52 °F 65 °F 86 °F (1994)
Min Temperature 38 °F 43 °F 34 °F (2005)
Degree Days  
Heating Degree Days 20 12  
Month to date heating degree days 397  
Since 1 July heating degree days 5942  
Cooling Degree Days 0 0  
Month to date cooling degree days 0  
Year to date cooling degree days 0  
Moisture  
Dew Point 31 °F    
Average Humidity 59    
Maximum Humidity 82    
Minimum Humidity 34    
Precipitation  
Precipitation 0.00 in 0.14 in 2.82 in (2007)
Month to date precipitation 3.16  
Year to date precipitation 9.64  
Snow  
Snow 0.00 in 0.00 in 0.00 in (2011)
Month to date snowfall 0.5  
Since 1 July snowfall 32.3  
Snow Depth -    
Sea Level Pressure  
Sea Level Pressure 30.21 in    
Wind  
Wind Speed 12 mph (West)    
Max Wind Speed 26 mph    
Max Gust Speed 33 mph    
Visibility 10 miles    
Events      
T = Trace of Precipitation, MM = Missing Value Source: NWS Daily Summary

Daily Weather History Graph

Daily Weather History Graph

Search for Another Location

Airport or City:

Trip Planner

Search our weather history database for the weather conditions in past years. The results will help you decide how hot, cold, wet, or windy it might be!

Date:

Astronomy

Apr. 25, 2013 Rise Set
Actual Time 5:58 AM CDT 7:45 PM CDT
Civil Twilight 5:29 AM CDT 8:14 PM CDT
Nautical Twilight 4:53 AM CDT 8:50 PM CDT
Astronomical Twilight 4:14 AM CDT 9:29 PM CDT
Moon 7:58 PM CDT (4/25) 5:41 AM CDT (4/25)
Length of Visible Light 14h 45m
Length of Day
13h 46m
Full, 100% of the Moon is Illuminated
Apr 25
Full
Apr 25
Full
May 2
Last Quarter
May 9
New
May 17
First Quarter

Hourly Weather History & Observations

Time (CDT) Temp. Windchill Dew Point Humidity Pressure Visibility Wind Dir Wind Speed Gust Speed Precip Events Conditions
12:15 AM 40.1 °F 33.6 °F 33.3 °F 77% 30.12 in 10.0 mi SSW 10.4 mph - N/A   Clear
12:35 AM 40.5 °F 34.1 °F 33.1 °F 75% 30.12 in 10.0 mi SSW 10.4 mph - N/A   Clear
12:55 AM 40.3 °F 33.4 °F 32.9 °F 75% 30.11 in 10.0 mi SSW 11.5 mph - N/A   Clear
1:15 AM 40.6 °F 33.4 °F 32.9 °F 74% 30.11 in 10.0 mi SSW 12.7 mph - N/A   Clear
1:35 AM 40.3 °F 33.0 °F 32.7 °F 74% 30.11 in 10.0 mi SSW 12.7 mph - N/A   Clear
1:55 AM 40.5 °F 33.6 °F 32.9 °F 74% 30.10 in 10.0 mi SSW 11.5 mph - N/A   Clear
2:15 AM 40.5 °F 33.6 °F 32.9 °F 74% 30.08 in 10.0 mi SSW 11.5 mph - N/A   Clear
2:35 AM 40.3 °F 33.4 °F 32.9 °F 75% 30.08 in 10.0 mi SSW 11.5 mph - N/A   Clear
2:55 AM 40.3 °F 33.9 °F 33.6 °F 77% 30.08 in 10.0 mi SW 10.4 mph - N/A   Scattered Clouds
3:15 AM 41.4 °F 35.2 °F 33.8 °F 74% 30.08 in 10.0 mi SW 10.4 mph - N/A   Mostly Cloudy
3:35 AM 42.8 °F 35.1 °F 33.3 °F 69% 30.09 in 10.0 mi SW 16.1 mph - N/A   Overcast
3:55 AM 42.8 °F 35.8 °F 33.3 °F 69% 30.09 in 10.0 mi WSW 13.8 mph - N/A   Overcast
4:15 AM 41.7 °F 35.6 °F 32.9 °F 71% 30.08 in 10.0 mi WSW 10.4 mph - N/A   Mostly Cloudy
4:35 AM 40.6 °F 34.3 °F 32.9 °F 74% 30.08 in 10.0 mi WSW 10.4 mph - N/A   Scattered Clouds
4:55 AM 40.1 °F 33.6 °F 33.3 °F 77% 30.09 in 10.0 mi WSW 10.4 mph - N/A   Scattered Clouds
5:15 AM 39.7 °F 33.7 °F 33.6 °F 79% 30.09 in 10.0 mi WSW 9.2 mph - N/A   Scattered Clouds
5:35 AM 38.8 °F 32.6 °F 33.4 °F 81% 30.09 in 10.0 mi SW 9.2 mph - N/A   Scattered Clouds
5:55 AM 39.2 °F 33.0 °F 34.2 °F 82% 30.09 in 10.0 mi SW 9.2 mph - N/A   Clear
6:15 AM 41.0 °F 34.7 °F 35.2 °F 80% 30.10 in 10.0 mi WSW 10.4 mph - N/A   Mostly Cloudy
6:35 AM 41.0 °F 35.2 °F 36.0 °F 82% 30.11 in 10.0 mi WSW 9.2 mph - N/A   Overcast
6:55 AM 42.1 °F 33.6 °F 35.8 °F 78% 30.11 in 10.0 mi West 18.4 mph - N/A   Scattered Clouds
7:15 AM 42.8 °F 34.5 °F 35.8 °F 76% 30.12 in 10.0 mi West 18.4 mph - N/A   Clear
7:35 AM 42.8 °F 33.8 °F 34.3 °F 72% 30.13 in 10.0 mi West 21.9 mph 26.5 mph N/A   Clear
7:55 AM 42.6 °F 33.8 °F 31.6 °F 65% 30.14 in 10.0 mi West 20.7 mph 28.8 mph N/A   Clear
8:15 AM 43.2 °F 33.8 °F 32.5 °F 66% 30.14 in 10.0 mi WNW 24.2 mph 32.2 mph N/A   Clear
8:35 AM 42.4 °F 32.4 °F 28.0 °F 57% 30.16 in 10.0 mi WNW 26.5 mph 33.4 mph N/A   Clear
8:55 AM 42.6 °F 33.1 °F 31.1 °F 64% 30.17 in 10.0 mi West 24.2 mph 27.6 mph N/A   Clear
9:15 AM 42.8 °F 33.8 °F 30.7 °F 62% 30.18 in 10.0 mi WNW 21.9 mph 27.6 mph N/A   Clear
9:35 AM 43.7 °F 35.4 °F 31.1 °F 61% 30.19 in 10.0 mi WNW 19.6 mph - N/A   Clear
9:55 AM 44.1 °F 35.9 °F 31.6 °F 62% 30.20 in 10.0 mi WNW 19.6 mph 27.6 mph N/A   Clear
10:15 AM 44.6 °F 36.9 °F 31.8 °F 61% 30.22 in 10.0 mi NW 18.4 mph 27.6 mph N/A   Clear
10:35 AM 45.5 °F 38.1 °F 31.6 °F 58% 30.23 in 10.0 mi WNW 18.4 mph 29.9 mph N/A   Scattered Clouds
10:55 AM 45.3 °F 38.7 °F 31.6 °F 59% 30.24 in 10.0 mi WNW 15.0 mph 26.5 mph N/A   Scattered Clouds
11:15 AM 46.0 °F 39.0 °F 31.3 °F 56% 30.25 in 10.0 mi WNW 17.3 mph 23.0 mph N/A   Mostly Cloudy
11:35 AM 47.3 °F - 31.1 °F 53% 30.25 in 10.0 mi West 17.3 mph 27.6 mph N/A   Scattered Clouds
11:55 AM 46.2 °F 40.8 °F 29.8 °F 53% 30.26 in 10.0 mi WNW 11.5 mph - N/A   Scattered Clouds
12:15 PM 48.2 °F - 30.6 °F 51% 30.26 in 10.0 mi WNW 12.7 mph 23.0 mph N/A   Mostly Cloudy
12:35 PM 48.4 °F - 30.0 °F 49% 30.27 in 10.0 mi WNW 18.4 mph 23.0 mph N/A   Scattered Clouds
12:55 PM 48.2 °F - 29.3 °F 48% 30.27 in 10.0 mi WNW 17.3 mph 21.9 mph N/A   Scattered Clouds
1:15 PM 48.6 °F - 29.7 °F 48% 30.28 in 10.0 mi West 12.7 mph 18.4 mph N/A   Scattered Clouds
1:35 PM 49.8 °F - 29.8 °F 46% 30.28 in 10.0 mi WNW 9.2 mph 17.3 mph N/A   Mostly Cloudy
1:55 PM 49.5 °F - 30.9 °F 49% 30.28 in 10.0 mi WNW 11.5 mph 25.3 mph N/A   Mostly Cloudy
2:15 PM 50.4 °F - 30.7 °F 47% 30.28 in 10.0 mi West 10.4 mph 19.6 mph N/A   Mostly Cloudy
2:35 PM 50.5 °F - 30.2 °F 46% 30.28 in 10.0 mi West 11.5 mph 16.1 mph N/A   Scattered Clouds
2:55 PM 50.4 °F - 29.7 °F 45% 30.29 in 10.0 mi WNW 17.3 mph 25.3 mph N/A   Scattered Clouds
3:15 PM 51.3 °F - 28.6 °F 42% 30.28 in 10.0 mi WNW 9.2 mph 18.4 mph N/A   Scattered Clouds
3:35 PM 51.1 °F - 28.9 °F 43% 30.28 in 10.0 mi West 6.9 mph 18.4 mph N/A   Scattered Clouds
3:55 PM 52.0 °F - 29.1 °F 41% 30.28 in 10.0 mi WNW 8.1 mph 19.6 mph N/A   Scattered Clouds
4:15 PM 52.0 °F - 28.4 °F 40% 30.28 in 10.0 mi WNW 16.1 mph 19.6 mph N/A   Scattered Clouds
4:35 PM 52.0 °F - 27.9 °F 39% 30.27 in 10.0 mi WNW 10.4 mph 18.4 mph N/A   Clear
4:55 PM 52.3 °F - 28.0 °F 39% 30.28 in 10.0 mi WNW 9.2 mph 13.8 mph N/A   Clear
5:15 PM 52.2 °F - 27.0 °F 38% 30.28 in 10.0 mi NW 5.8 mph 10.4 mph N/A   Clear
5:35 PM 52.3 °F - 27.9 °F 39% 30.28 in 10.0 mi WNW 11.5 mph - N/A   Clear
5:55 PM 51.8 °F - 24.1 °F 34% 30.28 in 10.0 mi West 9.2 mph - N/A   Clear
6:15 PM 51.8 °F - 25.3 °F 36% 30.28 in 10.0 mi West 9.2 mph - N/A   Clear
6:35 PM 51.3 °F - 26.1 °F 38% 30.28 in 10.0 mi West 8.1 mph - N/A   Clear
6:55 PM 50.4 °F - 28.4 °F 43% 30.28 in 10.0 mi WNW 8.1 mph - N/A   Clear
7:15 PM 49.3 °F - 28.6 °F 45% 30.29 in 10.0 mi West 5.8 mph - N/A   Clear
7:35 PM 47.5 °F - 29.3 °F 49% 30.29 in 10.0 mi West 4.6 mph - N/A   Clear
7:55 PM 47.5 °F - 27.5 °F 46% 30.29 in 10.0 mi West 3.5 mph - N/A   Clear
8:15 PM 47.8 °F - 27.1 °F 45% 30.29 in 10.0 mi Calm Calm - N/A   Clear
8:35 PM 48.2 °F - 25.3 °F 41% 30.30 in 10.0 mi Calm Calm - N/A   Clear
8:55 PM 43.9 °F - 31.1 °F 61% 30.30 in 10.0 mi Calm Calm - N/A   Clear
9:15 PM 44.4 °F - 30.7 °F 59% 30.31 in 10.0 mi Calm Calm - N/A   Clear
9:35 PM 43.3 °F 40.7 °F 30.6 °F 61% 30.31 in 10.0 mi SSE 4.6 mph - N/A   Clear
9:55 PM 43.3 °F 41.7 °F 29.5 °F 58% 30.31 in 10.0 mi SSE 3.5 mph - N/A   Clear
10:15 PM 43.0 °F 41.3 °F 30.0 °F 60% 30.31 in 10.0 mi SSE 3.5 mph - N/A   Clear
10:35 PM 43.0 °F - 31.1 °F 63% 30.32 in 10.0 mi Calm Calm - N/A   Clear
10:55 PM 42.3 °F 40.5 °F 31.6 °F 66% 30.32 in 10.0 mi South 3.5 mph - N/A   Clear
11:15 PM 42.3 °F - 31.8 °F 67% 30.31 in 10.0 mi Calm Calm - N/A   Clear
11:35 PM 42.4 °F 40.7 °F 30.9 °F 64% 30.31 in 10.0 mi SE 3.5 mph - N/A   Clear
11:55 PM 40.6 °F 38.6 °F 31.1 °F 69% 30.32 in 10.0 mi SE 3.5 mph - N/A   Clear